P/2024 F1 ( PanSTARRS )

Japanese version
Home page
Updated on May 15, 2024

---------------------------------------------------------------------

* Profile

Discovery Date March 18, 2024
Magnitude 20.7 mag
Discoverer Pan-STARRS 1 telescope (Haleakala)

* Orbital Elements

Epoch 2024 Mar. 31.0 TT = JDT 2460400.5
T 2023 Oct. 25.62708 TT                                 Rudenko
q   1.8595568            (2000.0)            P               Q
n   0.15432883     Peri.  229.53333     -0.51080107     -0.85187955
a   3.4422151      Node   251.54358     +0.82105889     -0.44351546
e   0.4597790      Incl.    7.00524     +0.25484224     -0.27855929
P   6.39
>From 48 observations 2024 Mar. 18-Apr. 10, mean residual 0".3.

* Magnitudes Graph

        m1 = 15.5 + 5 log d + 10.0 log r

---------------------------------------------------------------------

The orbital elements are published on M.P.E.C. 2024-J304.
The magnitudes graphs are made with Comet for Windows.

---------------------------------------------------------------------

Copyright(C) Seiichi Yoshida (comet@aerith.net). All rights reserved.